NOAA 16 DEB, 41220

Orbit data source: Space-Track

NOAA 16 DEB, 41220 is space debris in SSO originally from a launch on Thu, 21 Sep 2000 UTC launched from the Air Force Western Test Range (AFWTR). Debris objects in space refer to the collection of defunct objects orbiting the Earth. Examples of debris include non-operational satellites, rocket bodies, and fragments generated from explosions, collisions, or faulty payload assembly.

Loading next visibility...
Identifier
41220, 2000-055DZ
Orbit
SSO
Country
Flag of USUS
Related business
Manufacturer
Unknown
Mission
Spacecraft
Bus & Motor
Unknown
Mass
Unknown
Launch date (UTC)
2000-09-21 (26 years ago)
Launch vehicle
Unknown
Launch site
Air Force Western Test Range (AFWTR)
Object type
Payload
Rocket body
Debris
Shape & HBR
Unknown shape, 0.1 m
Radar Cross Section
Medium (>0.1 m² and <1 m²)

Expand to show TLE details & history
Last TLE update: 22 hours ago

TLE from 22 hours ago
0 NOAA 16 DEB
1 41220U 00055DZ  26170.09808744  .00002011  00000-0  91179-3 0  9999
2 41220  98.6662 217.8713 0015957 170.3729 189.7758 14.22949473542464
Epoch: 2026-06-19T02:21Z
TLE epoch observation values (Epoch: 2026-06-19T02:21:14.754Z)
Latitude
-0.00004°
Longitude
-84.77211°
Altitude
829.63 km
Speed
7.432 km/s
True Right ascension
14h 31m 29s
True Declination
0° 00' 00"
Sunlit
Object was in full shadow at epoch
Visualization orbit readout
Latitude
Unknown
Longitude
Unknown
Altitude
Unknown
Speed
Unknown
Apparent Right ascension
Unknown
Apparent Declination
Unknown
Sunlit
N/A
Visualization observer readout
Local Sidereal Time
11:02:46
Azimuth
Unknown
Elevation
Unknown
Doppler factor
Unknown
Orbital elements
Apogee altitude
824.022 km
Perigee altitude
801.074 km
Semi-major axis
7,190.685 km
Eccentricity
0.0016
Inclination
98.6662°
RAAN
217.8713°
Arg. of periapsis
170.3729°
True anomaly
189.74481°
Mean anomaly
189.7758°
Eccentric anomaly
189.7603°
Mean motion
3.55949 °/min
Orbital period
101.14 mins
BSTAR
0.00091179
Loading maneuver chart data...
Computing Atmospheric mass density...
Loading historical data...
Loading historical data...
Loading historical data...
Loading historical data...
Loading historical data...
Loading historical data...
Loading historical data...

Documentation

Showing up to 5 results
|